Temp
52 53 53 53 53 53 54 54 54 54 54 54 54 54 54 53 53 53 54 54 54 54 55 55 55 56 56 56 56 56 56 56 55 55 54 53 53 53 53 53 53 53 53 54 54 54 54 54 54 54 55 57 57 57 58 59 59 59 59 58 59 59 59 59 60 60 60 60 60
53 53 53 53 53 53 53 54 54 54 54 54 54 54 54 53 53 53 54 54 55 55 55 55 55 55 56 56 56 56 56 55 55 54 54 54 53 53 53 52 53 53 53 53 53 53 53 53 53 54 55 56 57 57 57 58 58 58 58 58 58 58 58 59 60 60 60 60 60
52 53 53 53 53 53 53 53 53 53 54 54 54 54 54 54 54 54 54 55 55 55 55 55 55 55 55 55 56 56 55 55 55 54 54 53 53 53 53 52 53 53 53 53 53 53 53 53 52 53 54 55 56 57 58 59 59 59 58 58 58 58 58 59 59 60 60 60 60
53 53 54 54 54 53 53 53 53 53 53 53 53 53 53 54 54 54 54 55 55 55 55 55 54 54 54 55 55 55 55 55 55 55 54 53 53 52 52 52 52 53 53 53 53 52 52 52 52 53 53 55 55 56 58 59 60 60 59 59 59 59 59 59 60 60 60 60 60
53 54 54 54 54 53 53 53 53 53 53 53 53 53 53 53 53 54 54 54 54 55 55 55 53 53 54 55 55 55 55 55 55 54 53 52 52 52 52 52 52 53 53 53 53 52 52 52 52 52 53 54 56 57 58 60 60 59 59 59 59 59 59 59 60 60 60 60 60
53 54 54 54 54 53 53 53 53 53 52 52 52 52 53 53 54 54 54 54 54 55 55 54 54 54 54 55 55 55 55 55 54 54 53 52 51 51 51 51 52 52 52 53 52 52 52 52 51 52 53 54 56 58 59 60 59 59 58 58 58 59 59 59 60 60 60 60 60
53 53 53 53 53 52 52 52 52 52 52 52 52 52 53 53 53 53 54 54 54 54 54 54 54 54 54 54 54 54 54 54 53 53 53 51 51 50 50 50 51 51 52 52 51 51 51 51 51 52 53 54 56 58 59 60 59 58 58 57 58 59 59 58 59 59 59 60 60
52 52 52 53 52 51 51 51 52 52 52 52 52 53 53 53 53 53 54 54 54 54 54 53 53 54 54 53 53 52 52 52 52 52 52 51 50 50 50 50 50 51 51 51 51 51 51 51 51 52 52 54 56 58 59 60 59 58 58 57 58 58 57 57 58 58 59 59 59
51 52 52 52 52 51 51 51 51 52 52 52 52 53 53 53 53 53 53 54 54 53 53 53 53 53 53 53 52 52 51 51 51 51 51 50 50 49 49 50 50 50 51 51 51 51 51 51 51 52 52 54 55 56 58 59 59 59 59 58 58 57 57 57 57 57 57 58 58
51 51 51 52 52 52 51 51 51 52 52 52 53 53 54 54 54 54 54 54 53 53 53 53 53 53 52 52 51 51 51 51 50 50 50 49 49 49 49 49 50 50 50 51 51 51 51 50 51 51 52 53 55 56 57 58 59 59 59 58 57 57 57 57 57 57 57 57 57
51 51 51 51 51 51 51 51 52 52 53 53 53 53 53 54 54 54 53 53 52 53 53 52 52 52 51 51 51 51 51 51 50 49 49 49 49 49 49 49 50 50 50 50 50 50 50 50 51 51 52 53 54 55 56 58 58 58 58 58 57 57 57 57 57 57 57 57 58
51 51 51 50 50 50 50 51 51 52 53 53 53 53 53 53 53 53 53 53 53 53 52 52 52 51 51 50 51 51 51 51 50 49 49 49 49 49 49 49 50 50 50 50 50 50 50 50 50 50 51 52 53 54 55 57 57 57 57 57 57 57 57 57 57 57 57 57 57
51 51 51 50 50 50 51 51 51 52 52 53 52 52 53 53 53 53 53 53 53 52 51 52 52 51 51 50 51 51 51 50 50 49 49 49 49 49 49 50 50 50 50 50 51 50 50 50 50 50 51 51 52 53 54 55 56 57 57 56 56 56 56 56 56 57 57 57 57
51 51 51 51 50 51 51 51 52 52 52 52 52 52 53 52 53 53 52 52 52 51 51 51 51 51 51 51 51 51 51 50 50 49 49 49 49 49 49 50 50 50 50 50 50 50 50 50 50 51 51 51 52 53 54 55 56 56 57 56 56 56 56 56 56 57 57 57 57
51 50 50 51 50 51 51 51 52 53 53 52 52 52 52 52 52 52 52 51 51 51 51 51 51 51 51 51 51 51 51 50 50 49 49 49 49 49 49 50 50 50 50 50 50 50 50 50 51 51 51 52 52 53 54 55 56 56 57 56 56 56 56 56 56 57 57 57 57
50 50 50 50 50 50 51 51 52 53 53 53 53 52 51 51 51 51 51 50 50 51 50 50 50 50 51 51 51 51 51 50 50 49 49 49 49 49 49 49 49 49 49 50 50 50 50 51 51 51 52 52 53 53 54 55 56 56 57 56 56 56 56 56 57 57 57 57 58
50 50 50 50 50 50 51 51 52 52 52 52 52 52 52 51 50 50 50 50 50 50 50 50 50 50 50 51 51 51 50 50 50 49 49 49 49 49 49 49 49 49 49 49 49 49 50 51 51 52 52 53 53 54 54 55 56 56 56 56 57 57 57 58 58 58 58 58 58
50 50 50 50 50 50 51 51 51 51 51 51 52 52 52 51 50 50 50 50 50 49 49 49 50 50 50 50 51 50 50 50 50 49 49 49 49 49 48 48 49 49 49 49 49 49 50 51 51 52 52 53 54 55 55 56 56 57 57 57 57 57 58 58 58 58 57 57 57
50 50 50 50 50 51 51 51 51 51 51 51 51 51 51 50 50 49 49 49 50 50 49 49 50 50 50 50 50 50 50 50 50 50 50 49 49 49 49 48 49 49 49 49 49 50 50 50 51 52 53 54 55 56 56 57 57 57 57 57 57 57 57 57 57 57 57 57 57
49 50 50 50 51 51 51 51 51 51 51 51 50 50 50 49 50 49 49 49 50 50 50 50 49 50 50 50 50 50 50 50 50 50 50 49 49 49 49 48 48 49 49 49 49 50 50 50 51 52 52 54 55 56 57 58 58 58 58 57 57 57 57 56 56 56 56 57 57
50 50 50 50 50 51 51 51 51 51 51 50 50 49 49 49 50 50 50 51 51 50 50 50 50 50 50 50 50 50 50 50 50 50 50 49 49 49 49 49 48 48 49 49 49 49 50 50 51 51 52 53 54 56 57 58 58 58 58 57 56 56 56 56 56 56 57 57 57
50 50 50 50 50 51 51 51 51 50 50 50 50 50 50 49 50 50 51 51 51 51 50 50 50 50 50 50 50 50 50 50 50 50 50 49 49 49 49 49 48 48 48 48 49 49 50 50 51 52 52 53 54 55 56 57 57 57 57 57 57 56 56 56 56 56 57 57 58
50 50 50 50 50 50 51 51 50 50 50 50 50 50 49 49 50 51 51 51 51 51 50 50 51 51 50 50 50 50 50 50 50 50 49 49 49 49 49 48 48 48 48 48 48 49 49 50 51 52 53 53 54 55 56 56 56 56 57 57 56 56 56 56 56 57 57 58 58
50 50 50 50 50 50 50 50 50 50 50 50 50 50 49 49 49 50 50 51 50 50 50 50 50 50 51 50 50 50 50 50 49 49 49 49 49 48 48 48 48 48 48 48 49 49 50 51 51 52 53 54 54 55 55 56 56 56 56 56 56 56 56 57 57 58 58 58 58
49 49 50 50 50 50 50 50 49 49 49 50 50 50 50 49 49 50 50 50 50 50 50 50 50 50 50 50 50 50 50 49 49 49 49 49 48 48 48 47 47 47 48 48 50 52 53 53 52 52 53 53 54 55 56 56 57 57 57 56 56 56 57 57 58 58 58 58 58
49 49 49 49 49 49 49 49 49 49 49 50 50 50 50 50 50 50 50 50 49 50 50 50 50 50 50 50 50 49 49 49 49 49 49 48 48 48 47 47 47 47 48 49 51 53 54 54 54 54 53 53 54 55 56 57 58 58 58 57 57 57 57 57 57 58 58 58 58
49 49 49 49 49 49 49 49 49 49 49 49 49 49 49 50 50 50 50 50 50 50 50 50 50 50 50 50 49 49 49 49 49 49 49 48 48 48 47 47 47 47 48 50 52 53 54 55 55 55 55 54 54 55 55 56 58 58 59 58 58 57 57 57 57 57 57 57 58
49 49 49 49 49 49 49 49 49 49 49 49 49 49 50 50 50 50 50 50 50 51 51 51 51 51 50 50 49 49 49 49 49 49 49 49 48 48 48 47 47 48 49 51 53 54 54 55 56 56 56 55 54 55 55 56 57 58 58 58 58 58 58 57 57 56 56 56 57
49 49 49 48 48 49 49 49 49 49 49 49 49 50 50 50 50 50 50 50 50 51 51 52 52 51 50 50 49 49 49 49 49 49 49 49 49 48 48 48 48 49 50 52 53 54 54 55 56 56 56 56 55 55 56 56 57 58 59 58 58 57 57 56 55 55 55 55 55
49 49 48 48 48 48 49 49 49 49 49 49 50 50 49 49 49 49 50 50 50 51 51 52 52 51 50 50 49 49 49 50 50 49 49 48 49 48 48 49 48 49 50 52 53 54 54 55 55 56 56 56 55 55 55 56 56 57 57 57 57 57 56 55 55 54 54 54 55
49 48 48 48 48 48 49 49 49 49 50 49 49 49 49 49 49 50 50 50 50 51 51 52 51 51 51 51 50 50 50 50 50 50 49 49 49 48 48 48 48 49 50 53 53 54 54 55 55 55 56 56 55 55 55 55 55 55 55 56 56 57 56 55 55 54 54 54 54
48 48 48 48 48 49 49 49 49 49 49 49 49 49 49 49 49 50 50 50 50 51 51 51 51 51 51 51 50 50 50 50 50 50 50 49 49 48 48 48 48 49 51 53 54 54 54 54 55 55 55 56 55 55 55 55 54 54 55 55 56 57 57 56 55 55 54 54 54
49 48 48 48 48 49 49 49 49 49 49 49 49 49 49 49 50 50 50 50 50 50 50 50 50 50 50 50 50 50 50 50 50 50 50 50 49 49 49 49 48 49 51 54 54 54 54 54 54 55 55 56 55 54 55 55 55 54 54 54 55 56 56 56 56 55 55 55 54
49 48 48 48 48 48 49 49 49 49 48 48 48 48 49 49 49 49 50 50 50 50 50 51 51 50 50 50 50 50 51 51 51 50 50 50 50 49 49 48 48 50 52 54 54 54 54 54 54 55 55 55 54 54 55 55 55 54 54 54 55 56 56 57 56 56 56 55 55
49 48 48 48 48 48 48 48 48 48 48 47 48 48 49 49 49 49 49 50 50 51 51 51 51 51 51 51 50 51 51 51 51 50 50 50 50 49 49 49 49 51 53 54 54 54 54 54 54 54 55 54 53 54 54 55 55 54 54 54 55 55 56 56 57 56 56 56 55
48 48 48 48 48 48 48 48 48 47 47 47 47 48 48 48 49 49 50 50 50 50 50 50 50 50 50 50 50 51 51 51 51 51 50 50 49 49 49 49 50 51 52 53 53 53 53 53 54 54 54 53 53 53 54 54 54 54 54 54 55 55 56 56 57 57 57 56 56
48 48 48 47 47 47 47 47 47 47 47 47 47 48 48 48 49 49 50 50 50 50 50 50 50 49 49 49 50 51 51 51 51 51 50 50 49 49 49 49 50 50 51 52 53 53 53 53 54 54 54 52 52 52 54 54 54 54 54 54 54 55 55 56 56 57 57 56 56
48 48 48 47 47 47 47 47 47 46 47 47 47 48 48 48 49 49 50 50 50 50 49 49 49 49 49 50 50 51 51 51 51 51 50 50 49 49 49 49 49 50 50 52 52 53 53 53 54 54 53 52 52 52 53 54 54 54 54 54 54 55 55 55 56 56 56 56 56
48 48 47 47 47 46 46 46 46 46 47 47 47 48 48 48 49 49 50 50 50 50 49 49 49 49 50 51 50 51 51 51 51 51 51 50 50 50 51 50 49 49 50 51 52 52 52 53 54 54 54 52 52 52 53 54 54 54 54 54 54 54 55 55 55 56 56 56 57
48 48 47 47 47 46 46 46 46 46 47 47 47 47 48 48 49 50 50 50 50 50 50 50 50 50 51 51 50 50 50 51 51 51 51 51 51 52 51 50 49 49 50 51 51 52 52 53 53 54 54 52 52 53 53 53 54 54 54 54 54 54 54 55 55 55 56 56 57
48 48 47 47 47 46 46 46 46 47 47 47 47 47 48 49 49 50 50 50 50 50 50 50 50 50 50 51 50 50 50 50 50 50 51 51 51 52 51 50 49 49 49 50 51 51 52 53 53 54 54 53 53 53 53 53 53 53 53 54 54 54 54 55 55 56 56 56 57
MSLP
1020.16 1020.00 1019.88 1019.72 1019.56 1019.32 1019.12 1018.92 1018.76 1018.56 1018.36 1018.16 1017.92 1017.72 1017.52 1017.32 1017.04 1016.76 1016.48 1016.24 1016.00 1015.64 1015.32 1015.00 1014.68 1014.44 1014.16 1013.92 1013.76 1013.52 1013.28 1013.04 1012.84 1012.68 1012.48 1012.28 1012.04 1011.80 1011.48 1011.16 1010.76 1010.40 1010.04 1009.76 1009.48 1009.20 1008.88 1008.56 1008.20 1007.76 1007.20 1006.60 1006.20 1005.92 1005.72 1005.48 1005.24 1005.04 1004.88 1004.84 1004.84 1004.76 1004.68 1004.60 1004.48 1004.48 1004.48 1004.56 1004.56
1019.92 1019.80 1019.72 1019.52 1019.32 1019.16 1018.96 1018.76 1018.56 1018.36 1018.20 1018.00 1017.84 1017.60 1017.36 1017.12 1016.88 1016.60 1016.28 1016.00 1015.76 1015.44 1015.12 1014.80 1014.52 1014.28 1014.00 1013.76 1013.56 1013.32 1013.04 1012.80 1012.60 1012.40 1012.20 1011.96 1011.76 1011.52 1011.24 1010.92 1010.56 1010.20 1009.88 1009.52 1009.24 1008.92 1008.64 1008.32 1008.00 1007.60 1007.08 1006.52 1006.04 1005.72 1005.48 1005.32 1005.16 1004.96 1004.76 1004.64 1004.60 1004.60 1004.48 1004.32 1004.16 1004.16 1004.20 1004.32 1004.32
1019.76 1019.60 1019.48 1019.32 1019.16 1018.96 1018.76 1018.60 1018.40 1018.20 1018.04 1017.88 1017.64 1017.44 1017.20 1016.92 1016.68 1016.36 1016.04 1015.76 1015.48 1015.24 1014.96 1014.64 1014.36 1014.08 1013.84 1013.60 1013.36 1013.12 1012.92 1012.64 1012.40 1012.16 1011.92 1011.68 1011.48 1011.24 1010.96 1010.64 1010.28 1009.92 1009.60 1009.32 1009.04 1008.76 1008.48 1008.16 1007.84 1007.48 1007.00 1006.48 1005.96 1005.52 1005.20 1005.00 1004.80 1004.68 1004.52 1004.36 1004.36 1004.36 1004.32 1004.16 1004.04 1003.96 1004.00 1004.00 1004.00
1019.60 1019.44 1019.24 1019.08 1018.92 1018.76 1018.60 1018.48 1018.24 1018.04 1017.88 1017.72 1017.48 1017.24 1017.00 1016.76 1016.48 1016.16 1015.80 1015.52 1015.28 1015.04 1014.76 1014.48 1014.20 1013.96 1013.76 1013.48 1013.20 1012.92 1012.64 1012.40 1012.20 1011.92 1011.68 1011.48 1011.20 1010.92 1010.64 1010.36 1010.00 1009.60 1009.32 1009.04 1008.80 1008.52 1008.24 1007.96 1007.68 1007.32 1006.88 1006.36 1005.88 1005.40 1005.00 1004.72 1004.48 1004.32 1004.20 1004.16 1004.20 1004.16 1004.04 1003.88 1003.76 1003.72 1003.68 1003.64 1003.60
1019.40 1019.24 1019.08 1018.92 1018.76 1018.60 1018.48 1018.32 1018.12 1017.88 1017.76 1017.52 1017.28 1017.04 1016.76 1016.48 1016.20 1015.88 1015.60 1015.32 1015.04 1014.76 1014.48 1014.28 1014.04 1013.84 1013.60 1013.32 1013.00 1012.68 1012.44 1012.20 1011.96 1011.76 1011.52 1011.28 1011.00 1010.72 1010.40 1010.08 1009.72 1009.36 1009.04 1008.76 1008.52 1008.28 1008.04 1007.76 1007.48 1007.12 1006.72 1006.20 1005.64 1005.08 1004.68 1004.48 1004.28 1004.16 1004.08 1004.00 1004.04 1003.96 1003.84 1003.72 1003.56 1003.44 1003.36 1003.36 1003.32
1019.24 1019.08 1018.92 1018.76 1018.60 1018.48 1018.32 1018.12 1017.96 1017.76 1017.60 1017.36 1017.12 1016.80 1016.48 1016.20 1015.92 1015.64 1015.36 1015.08 1014.76 1014.48 1014.24 1014.04 1013.88 1013.64 1013.32 1013.04 1012.76 1012.48 1012.20 1011.92 1011.72 1011.52 1011.32 1011.04 1010.76 1010.48 1010.16 1009.76 1009.44 1009.08 1008.76 1008.48 1008.28 1008.04 1007.80 1007.52 1007.20 1006.84 1006.44 1005.96 1005.40 1004.80 1004.40 1004.16 1004.04 1003.92 1003.88 1003.80 1003.76 1003.72 1003.60 1003.40 1003.28 1003.12 1003.04 1003.00 1002.96
1019.12 1018.96 1018.76 1018.60 1018.48 1018.32 1018.12 1017.96 1017.80 1017.60 1017.44 1017.20 1016.92 1016.56 1016.24 1016.00 1015.72 1015.44 1015.16 1014.92 1014.60 1014.32 1014.08 1013.88 1013.64 1013.44 1013.16 1012.88 1012.60 1012.32 1012.04 1011.76 1011.48 1011.32 1011.12 1010.88 1010.60 1010.28 1009.92 1009.56 1009.20 1008.80 1008.48 1008.24 1008.04 1007.80 1007.60 1007.32 1007.04 1006.68 1006.20 1005.76 1005.16 1004.60 1004.16 1003.88 1003.76 1003.64 1003.60 1003.60 1003.52 1003.44 1003.32 1003.16 1003.04 1002.84 1002.72 1002.60 1002.60
1019.00 1018.80 1018.64 1018.48 1018.32 1018.12 1017.96 1017.80 1017.60 1017.40 1017.20 1016.92 1016.64 1016.32 1016.04 1015.76 1015.48 1015.24 1014.96 1014.68 1014.40 1014.16 1013.92 1013.72 1013.48 1013.24 1013.00 1012.76 1012.48 1012.20 1011.88 1011.60 1011.32 1011.08 1010.92 1010.68 1010.36 1010.04 1009.72 1009.32 1008.92 1008.60 1008.28 1008.04 1007.88 1007.64 1007.48 1007.20 1006.92 1006.52 1006.04 1005.52 1004.92 1004.36 1003.92 1003.64 1003.48 1003.36 1003.32 1003.28 1003.28 1003.24 1003.20 1003.04 1002.92 1002.76 1002.60 1002.48 1002.48
1018.76 1018.60 1018.48 1018.32 1018.12 1017.92 1017.76 1017.60 1017.44 1017.20 1016.96 1016.64 1016.40 1016.12 1015.80 1015.52 1015.28 1015.00 1014.72 1014.48 1014.20 1014.00 1013.80 1013.60 1013.32 1013.08 1012.84 1012.60 1012.32 1012.04 1011.76 1011.48 1011.20 1010.92 1010.68 1010.48 1010.20 1009.84 1009.44 1009.04 1008.64 1008.32 1008.04 1007.84 1007.64 1007.48 1007.24 1007.04 1006.68 1006.20 1005.76 1005.24 1004.68 1004.12 1003.72 1003.40 1003.20 1003.04 1002.92 1002.92 1002.96 1003.00 1003.00 1002.96 1002.88 1002.80 1002.72 1002.56 1002.40
1018.60 1018.44 1018.28 1018.08 1017.88 1017.76 1017.60 1017.40 1017.20 1017.00 1016.76 1016.44 1016.12 1015.84 1015.56 1015.32 1015.04 1014.80 1014.56 1014.32 1014.04 1013.84 1013.60 1013.40 1013.20 1012.92 1012.68 1012.44 1012.20 1011.92 1011.64 1011.36 1011.08 1010.80 1010.56 1010.28 1010.00 1009.60 1009.20 1008.76 1008.40 1008.04 1007.76 1007.60 1007.44 1007.20 1006.96 1006.64 1006.32 1005.88 1005.48 1005.04 1004.48 1003.96 1003.48 1003.16 1002.92 1002.68 1002.60 1002.60 1002.72 1002.76 1002.76 1002.76 1002.72 1002.64 1002.56 1002.44 1002.24
1018.44 1018.24 1018.08 1017.92 1017.76 1017.56 1017.40 1017.20 1016.96 1016.76 1016.48 1016.12 1015.80 1015.56 1015.32 1015.08 1014.84 1014.60 1014.36 1014.20 1013.92 1013.68 1013.44 1013.20 1013.04 1012.80 1012.56 1012.28 1012.04 1011.76 1011.48 1011.20 1010.96 1010.72 1010.44 1010.08 1009.76 1009.40 1009.00 1008.60 1008.20 1007.84 1007.56 1007.32 1007.12 1006.92 1006.60 1006.28 1005.88 1005.56 1005.20 1004.76 1004.32 1003.88 1003.36 1002.92 1002.60 1002.40 1002.28 1002.28 1002.40 1002.48 1002.48 1002.48 1002.44 1002.36 1002.32 1002.20 1002.00
1018.24 1018.04 1017.88 1017.76 1017.60 1017.40 1017.24 1017.04 1016.76 1016.44 1016.16 1015.84 1015.56 1015.32 1015.12 1014.92 1014.64 1014.44 1014.20 1014.00 1013.76 1013.48 1013.28 1013.04 1012.88 1012.64 1012.40 1012.12 1011.84 1011.56 1011.32 1011.04 1010.84 1010.60 1010.32 1009.96 1009.60 1009.20 1008.76 1008.32 1007.92 1007.60 1007.32 1007.04 1006.80 1006.56 1006.24 1005.88 1005.56 1005.20 1004.84 1004.52 1004.20 1003.76 1003.24 1002.84 1002.48 1002.20 1002.04 1002.00 1002.04 1002.08 1002.08 1002.04 1002.12 1002.12 1002.08 1002.00 1001.84
1018.08 1017.88 1017.72 1017.56 1017.36 1017.20 1017.04 1016.76 1016.48 1016.20 1015.88 1015.60 1015.36 1015.12 1014.92 1014.68 1014.48 1014.24 1014.04 1013.80 1013.56 1013.32 1013.12 1012.92 1012.72 1012.48 1012.20 1011.92 1011.64 1011.36 1011.12 1010.92 1010.64 1010.40 1010.12 1009.80 1009.40 1008.96 1008.52 1008.08 1007.72 1007.36 1007.04 1006.76 1006.48 1006.24 1005.92 1005.56 1005.20 1004.92 1004.56 1004.20 1003.88 1003.48 1003.08 1002.76 1002.36 1002.04 1001.84 1001.76 1001.76 1001.76 1001.76 1001.76 1001.84 1001.84 1001.84 1001.76 1001.60
1017.92 1017.76 1017.56 1017.32 1017.16 1017.00 1016.76 1016.48 1016.20 1015.88 1015.64 1015.40 1015.20 1014.96 1014.76 1014.52 1014.32 1014.12 1013.88 1013.68 1013.44 1013.20 1012.96 1012.76 1012.48 1012.28 1012.04 1011.76 1011.48 1011.24 1010.96 1010.68 1010.48 1010.20 1009.92 1009.60 1009.20 1008.80 1008.36 1007.92 1007.52 1007.20 1006.88 1006.52 1006.24 1005.96 1005.60 1005.24 1004.88 1004.52 1004.20 1003.80 1003.48 1003.12 1002.80 1002.48 1002.20 1001.88 1001.68 1001.52 1001.48 1001.48 1001.52 1001.56 1001.60 1001.60 1001.60 1001.48 1001.28
1017.76 1017.56 1017.36 1017.16 1016.96 1016.76 1016.52 1016.24 1016.00 1015.68 1015.44 1015.20 1015.00 1014.76 1014.60 1014.40 1014.16 1013.96 1013.76 1013.52 1013.28 1013.04 1012.84 1012.56 1012.32 1012.04 1011.80 1011.60 1011.32 1011.04 1010.76 1010.48 1010.28 1010.00 1009.68 1009.32 1009.00 1008.60 1008.20 1007.76 1007.32 1007.00 1006.64 1006.32 1005.96 1005.60 1005.28 1004.88 1004.52 1004.16 1003.76 1003.40 1003.04 1002.68 1002.36 1002.04 1001.80 1001.60 1001.44 1001.32 1001.24 1001.24 1001.32 1001.36 1001.36 1001.32 1001.24 1001.12 1000.96
1017.52 1017.32 1017.12 1016.92 1016.76 1016.52 1016.28 1016.04 1015.76 1015.52 1015.28 1015.04 1014.84 1014.60 1014.44 1014.24 1014.04 1013.80 1013.60 1013.40 1013.16 1012.92 1012.64 1012.40 1012.12 1011.84 1011.56 1011.32 1011.08 1010.80 1010.52 1010.28 1010.04 1009.76 1009.48 1009.16 1008.76 1008.36 1007.96 1007.60 1007.20 1006.80 1006.44 1006.08 1005.68 1005.28 1004.88 1004.48 1004.12 1003.76 1003.36 1003.00 1002.60 1002.20 1001.88 1001.60 1001.32 1001.20 1001.08 1001.04 1001.04 1001.04 1001.08 1001.12 1001.08 1001.04 1000.92 1000.76 1000.60
1017.32 1017.08 1016.92 1016.68 1016.48 1016.28 1016.04 1015.84 1015.60 1015.36 1015.16 1014.92 1014.72 1014.52 1014.32 1014.08 1013.88 1013.68 1013.48 1013.28 1013.04 1012.76 1012.48 1012.20 1011.92 1011.68 1011.36 1011.04 1010.80 1010.56 1010.32 1010.04 1009.80 1009.52 1009.24 1008.92 1008.56 1008.20 1007.80 1007.40 1007.04 1006.64 1006.28 1005.84 1005.44 1004.96 1004.52 1004.12 1003.76 1003.36 1002.96 1002.56 1002.16 1001.76 1001.40 1001.08 1000.88 1000.76 1000.72 1000.76 1000.80 1000.80 1000.76 1000.76 1000.72 1000.64 1000.56 1000.48 1000.32
1017.08 1016.88 1016.68 1016.48 1016.28 1016.04 1015.80 1015.60 1015.44 1015.24 1015.04 1014.80 1014.60 1014.36 1014.20 1013.96 1013.76 1013.56 1013.32 1013.08 1012.88 1012.60 1012.28 1012.00 1011.72 1011.48 1011.20 1010.92 1010.60 1010.32 1010.12 1009.84 1009.60 1009.32 1009.04 1008.72 1008.40 1008.04 1007.64 1007.28 1006.92 1006.48 1006.08 1005.64 1005.20 1004.76 1004.32 1003.88 1003.48 1003.08 1002.64 1002.20 1001.72 1001.32 1001.04 1000.76 1000.60 1000.48 1000.48 1000.52 1000.52 1000.48 1000.48 1000.44 1000.44 1000.40 1000.32 1000.28 1000.20
1016.88 1016.64 1016.44 1016.24 1016.04 1015.84 1015.60 1015.44 1015.24 1015.08 1014.88 1014.68 1014.48 1014.24 1014.04 1013.84 1013.64 1013.40 1013.16 1012.88 1012.64 1012.40 1012.12 1011.76 1011.52 1011.24 1011.00 1010.72 1010.40 1010.16 1009.88 1009.64 1009.36 1009.04 1008.76 1008.52 1008.24 1007.88 1007.56 1007.16 1006.76 1006.32 1005.88 1005.48 1005.04 1004.60 1004.16 1003.72 1003.32 1002.92 1002.40 1001.92 1001.52 1001.16 1000.88 1000.64 1000.48 1000.36 1000.32 1000.28 1000.28 1000.24 1000.20 1000.24 1000.20 1000.20 1000.16 1000.08 1000.00
1016.68 1016.48 1016.24 1016.04 1015.88 1015.68 1015.48 1015.32 1015.12 1014.92 1014.72 1014.48 1014.32 1014.12 1013.88 1013.68 1013.48 1013.20 1012.96 1012.68 1012.44 1012.20 1011.88 1011.60 1011.32 1011.04 1010.76 1010.48 1010.20 1009.92 1009.68 1009.44 1009.16 1008.88 1008.60 1008.32 1008.04 1007.76 1007.40 1007.00 1006.56 1006.16 1005.76 1005.32 1004.92 1004.48 1004.04 1003.64 1003.20 1002.76 1002.32 1001.92 1001.56 1001.16 1000.76 1000.48 1000.28 1000.16 1000.08 1000.04 1000.04 1000.00 999.96 999.96 999.92 999.88 999.88 999.76 999.64
1016.48 1016.24 1016.04 1015.88 1015.72 1015.56 1015.36 1015.20 1014.96 1014.76 1014.60 1014.36 1014.16 1013.92 1013.72 1013.48 1013.24 1013.00 1012.76 1012.48 1012.20 1011.96 1011.72 1011.44 1011.16 1010.84 1010.56 1010.28 1010.00 1009.76 1009.48 1009.20 1008.96 1008.72 1008.44 1008.16 1007.88 1007.60 1007.24 1006.88 1006.44 1006.00 1005.60 1005.20 1004.80 1004.36 1003.92 1003.56 1003.12 1002.76 1002.36 1002.00 1001.56 1001.08 1000.60 1000.32 1000.04 999.88 999.76 999.76 999.76 999.76 999.72 999.68 999.60 999.56 999.48 999.40 999.24
1016.24 1016.04 1015.88 1015.72 1015.56 1015.40 1015.20 1015.00 1014.80 1014.60 1014.44 1014.20 1013.96 1013.72 1013.48 1013.28 1013.04 1012.80 1012.52 1012.28 1012.04 1011.76 1011.48 1011.20 1010.92 1010.64 1010.36 1010.12 1009.84 1009.56 1009.28 1008.96 1008.76 1008.52 1008.28 1008.04 1007.72 1007.44 1007.08 1006.76 1006.32 1005.88 1005.48 1005.08 1004.72 1004.24 1003.80 1003.40 1003.04 1002.64 1002.24 1001.80 1001.32 1000.80 1000.40 1000.08 999.84 999.64 999.48 999.44 999.40 999.40 999.40 999.36 999.28 999.20 999.08 998.96 998.84
1016.04 1015.88 1015.76 1015.60 1015.48 1015.24 1015.04 1014.84 1014.64 1014.44 1014.24 1014.00 1013.76 1013.48 1013.32 1013.08 1012.88 1012.60 1012.36 1012.12 1011.84 1011.56 1011.32 1011.04 1010.76 1010.48 1010.20 1009.96 1009.68 1009.36 1009.08 1008.76 1008.52 1008.32 1008.08 1007.84 1007.56 1007.24 1006.92 1006.60 1006.20 1005.80 1005.40 1005.00 1004.60 1004.16 1003.64 1003.20 1002.76 1002.32 1001.92 1001.48 1000.96 1000.52 1000.16 999.84 999.60 999.40 999.24 999.08 999.04 999.04 999.04 999.00 998.92 998.80 998.68 998.56 998.40
1015.92 1015.76 1015.64 1015.48 1015.32 1015.08 1014.92 1014.72 1014.48 1014.24 1014.04 1013.76 1013.52 1013.32 1013.12 1012.92 1012.68 1012.48 1012.20 1011.92 1011.64 1011.40 1011.16 1010.88 1010.60 1010.32 1010.04 1009.76 1009.48 1009.20 1008.92 1008.60 1008.32 1008.04 1007.84 1007.60 1007.36 1007.08 1006.76 1006.44 1006.04 1005.68 1005.32 1004.96 1004.48 1004.00 1003.48 1003.04 1002.56 1002.04 1001.60 1001.20 1000.76 1000.32 999.92 999.60 999.36 999.20 999.04 998.92 998.76 998.72 998.64 998.60 998.52 998.36 998.24 998.12 998.00
1015.80 1015.64 1015.48 1015.32 1015.12 1014.92 1014.72 1014.48 1014.28 1014.04 1013.80 1013.56 1013.32 1013.16 1012.92 1012.72 1012.48 1012.28 1012.00 1011.72 1011.48 1011.20 1010.92 1010.64 1010.36 1010.08 1009.84 1009.56 1009.28 1009.00 1008.72 1008.44 1008.20 1007.88 1007.64 1007.40 1007.20 1006.92 1006.64 1006.32 1005.96 1005.60 1005.20 1004.88 1004.36 1003.80 1003.24 1002.84 1002.40 1001.96 1001.52 1001.04 1000.60 1000.12 999.68 999.32 999.04 998.92 998.80 998.72 998.60 998.48 998.32 998.20 998.08 997.96 997.88 997.76 997.60
1015.64 1015.48 1015.32 1015.16 1014.96 1014.76 1014.56 1014.32 1014.08 1013.84 1013.60 1013.36 1013.16 1012.96 1012.76 1012.52 1012.32 1012.08 1011.84 1011.56 1011.28 1011.00 1010.68 1010.44 1010.16 1009.88 1009.60 1009.32 1009.04 1008.76 1008.48 1008.24 1008.04 1007.76 1007.48 1007.24 1007.00 1006.76 1006.48 1006.20 1005.88 1005.48 1005.08 1004.72 1004.20 1003.64 1003.08 1002.60 1002.20 1001.76 1001.36 1000.92 1000.40 999.88 999.36 998.96 998.68 998.52 998.44 998.40 998.32 998.28 998.16 997.96 997.84 997.72 997.60 997.44 997.24
1015.48 1015.32 1015.16 1014.96 1014.76 1014.60 1014.36 1014.12 1013.88 1013.64 1013.44 1013.20 1013.00 1012.76 1012.56 1012.32 1012.12 1011.88 1011.64 1011.40 1011.08 1010.76 1010.48 1010.20 1009.96 1009.68 1009.44 1009.16 1008.92 1008.60 1008.36 1008.08 1007.84 1007.60 1007.32 1007.12 1006.88 1006.60 1006.32 1006.04 1005.68 1005.32 1004.92 1004.48 1004.00 1003.48 1002.92 1002.40 1001.88 1001.48 1001.04 1000.64 1000.16 999.60 999.16 998.72 998.40 998.20 998.12 998.08 998.04 998.00 997.88 997.80 997.64 997.52 997.32 997.16 996.92
1015.32 1015.20 1015.00 1014.80 1014.60 1014.36 1014.12 1013.88 1013.68 1013.48 1013.24 1013.04 1012.80 1012.60 1012.32 1012.16 1011.96 1011.76 1011.48 1011.20 1010.92 1010.60 1010.32 1010.04 1009.76 1009.48 1009.24 1009.00 1008.72 1008.48 1008.20 1007.92 1007.64 1007.40 1007.16 1006.92 1006.68 1006.44 1006.20 1005.88 1005.52 1005.12 1004.72 1004.28 1003.76 1003.20 1002.68 1002.20 1001.68 1001.20 1000.76 1000.40 999.92 999.40 998.92 998.48 998.20 998.04 997.88 997.76 997.76 997.68 997.60 997.56 997.48 997.36 997.20 997.00 996.80
1015.20 1015.00 1014.80 1014.60 1014.44 1014.20 1013.92 1013.72 1013.52 1013.28 1013.04 1012.80 1012.60 1012.40 1012.20 1011.96 1011.76 1011.56 1011.32 1011.04 1010.76 1010.44 1010.16 1009.84 1009.56 1009.32 1009.08 1008.80 1008.56 1008.28 1008.04 1007.76 1007.48 1007.20 1006.96 1006.72 1006.48 1006.24 1005.96 1005.64 1005.32 1004.92 1004.52 1004.04 1003.60 1003.04 1002.52 1002.04 1001.52 1001.04 1000.60 1000.20 999.76 999.28 998.76 998.32 998.04 997.80 997.64 997.48 997.44 997.40 997.36 997.36 997.32 997.20 997.08 996.92 996.76
1015.04 1014.84 1014.64 1014.48 1014.24 1014.00 1013.76 1013.52 1013.32 1013.12 1012.92 1012.64 1012.44 1012.20 1012.00 1011.76 1011.56 1011.32 1011.08 1010.84 1010.60 1010.32 1010.04 1009.76 1009.48 1009.20 1008.96 1008.68 1008.40 1008.16 1007.88 1007.56 1007.28 1007.04 1006.76 1006.52 1006.24 1006.00 1005.76 1005.44 1005.12 1004.76 1004.32 1003.88 1003.44 1002.92 1002.40 1001.88 1001.44 1000.96 1000.48 1000.04 999.60 999.16 998.68 998.32 998.08 997.84 997.60 997.36 997.20 997.16 997.16 997.16 997.08 997.04 996.92 996.84 996.76
1014.88 1014.68 1014.48 1014.32 1014.04 1013.84 1013.60 1013.32 1013.12 1012.92 1012.72 1012.48 1012.28 1012.08 1011.84 1011.60 1011.36 1011.16 1010.92 1010.68 1010.44 1010.16 1009.88 1009.64 1009.36 1009.08 1008.80 1008.52 1008.28 1008.00 1007.72 1007.40 1007.08 1006.84 1006.60 1006.32 1006.04 1005.76 1005.52 1005.20 1004.92 1004.52 1004.16 1003.72 1003.24 1002.76 1002.28 1001.84 1001.40 1000.92 1000.44 1000.00 999.52 999.04 998.60 998.28 998.08 997.92 997.68 997.36 997.12 996.92 996.84 996.84 996.84 996.80 996.80 996.76 996.64
1014.68 1014.52 1014.32 1014.12 1013.88 1013.64 1013.40 1013.20 1012.96 1012.76 1012.56 1012.36 1012.12 1011.88 1011.64 1011.44 1011.20 1010.96 1010.76 1010.56 1010.32 1010.04 1009.76 1009.48 1009.20 1008.92 1008.60 1008.32 1008.08 1007.84 1007.56 1007.28 1006.96 1006.68 1006.44 1006.16 1005.88 1005.60 1005.36 1005.04 1004.72 1004.32 1003.92 1003.48 1003.04 1002.60 1002.20 1001.76 1001.32 1000.84 1000.36 999.88 999.44 998.92 998.48 998.20 998.00 997.88 997.72 997.48 997.12 996.84 996.68 996.64 996.64 996.64 996.64 996.68 996.56
1014.48 1014.32 1014.16 1013.92 1013.68 1013.44 1013.20 1013.04 1012.80 1012.60 1012.40 1012.16 1011.96 1011.76 1011.48 1011.20 1011.00 1010.76 1010.60 1010.36 1010.16 1009.88 1009.60 1009.32 1009.04 1008.76 1008.48 1008.20 1007.96 1007.68 1007.36 1007.04 1006.76 1006.48 1006.24 1006.00 1005.76 1005.48 1005.20 1004.92 1004.60 1004.24 1003.80 1003.32 1002.92 1002.48 1002.12 1001.68 1001.20 1000.76 1000.28 999.76 999.32 998.80 998.32 997.96 997.76 997.72 997.60 997.48 997.20 996.92 996.72 996.60 996.56 996.60 996.60 996.56 996.48
1014.32 1014.12 1013.92 1013.76 1013.52 1013.28 1013.04 1012.84 1012.64 1012.48 1012.24 1012.00 1011.76 1011.52 1011.32 1011.08 1010.84 1010.60 1010.40 1010.20 1009.96 1009.72 1009.44 1009.20 1008.92 1008.64 1008.40 1008.16 1007.88 1007.56 1007.20 1006.88 1006.60 1006.32 1006.08 1005.88 1005.60 1005.36 1005.12 1004.84 1004.48 1004.12 1003.68 1003.24 1002.84 1002.48 1002.04 1001.60 1001.12 1000.64 1000.16 999.64 999.20 998.68 998.20 997.76 997.56 997.48 997.40 997.32 997.20 996.96 996.76 996.60 996.52 996.52 996.56 996.48 996.32
1014.16 1013.96 1013.76 1013.56 1013.36 1013.16 1012.92 1012.72 1012.48 1012.32 1012.08 1011.84 1011.60 1011.32 1011.12 1010.92 1010.72 1010.48 1010.28 1010.04 1009.76 1009.48 1009.24 1009.00 1008.76 1008.52 1008.24 1008.00 1007.76 1007.44 1007.08 1006.76 1006.44 1006.20 1005.96 1005.72 1005.48 1005.20 1004.96 1004.68 1004.36 1004.00 1003.60 1003.20 1002.80 1002.44 1002.04 1001.56 1001.08 1000.56 1000.08 999.60 999.16 998.60 998.04 997.56 997.32 997.20 997.12 997.04 996.96 996.88 996.76 996.60 996.60 996.52 996.48 996.40 996.24
1014.04 1013.84 1013.60 1013.40 1013.20 1013.04 1012.80 1012.60 1012.36 1012.20 1011.92 1011.68 1011.40 1011.16 1010.92 1010.76 1010.56 1010.32 1010.12 1009.88 1009.60 1009.32 1009.04 1008.80 1008.56 1008.32 1008.08 1007.88 1007.60 1007.28 1006.96 1006.64 1006.32 1006.04 1005.80 1005.56 1005.32 1005.12 1004.84 1004.52 1004.20 1003.84 1003.48 1003.20 1002.80 1002.40 1002.00 1001.56 1001.08 1000.56 1000.04 999.60 999.12 998.52 997.92 997.44 997.12 996.96 996.88 996.80 996.80 996.76 996.68 996.60 996.60 996.48 996.40 996.32 996.16
1013.84 1013.68 1013.48 1013.28 1013.04 1012.88 1012.68 1012.48 1012.24 1012.04 1011.76 1011.52 1011.24 1011.04 1010.80 1010.60 1010.36 1010.16 1009.92 1009.72 1009.44 1009.12 1008.84 1008.60 1008.40 1008.20 1007.92 1007.68 1007.40 1007.12 1006.84 1006.52 1006.20 1005.92 1005.64 1005.44 1005.20 1005.00 1004.72 1004.32 1004.04 1003.76 1003.48 1003.16 1002.76 1002.40 1002.00 1001.52 1001.04 1000.52 1000.04 999.60 999.08 998.48 997.88 997.36 997.04 996.84 996.72 996.64 996.60 996.60 996.60 996.60 996.48 996.40 996.32 996.20 996.04
1013.68 1013.56 1013.36 1013.16 1012.92 1012.76 1012.52 1012.32 1012.12 1011.88 1011.60 1011.32 1011.08 1010.88 1010.64 1010.48 1010.20 1010.00 1009.76 1009.56 1009.32 1009.00 1008.68 1008.48 1008.24 1008.00 1007.76 1007.48 1007.20 1006.92 1006.68 1006.44 1006.16 1005.88 1005.56 1005.28 1005.08 1004.88 1004.56 1004.24 1003.92 1003.72 1003.48 1003.16 1002.76 1002.40 1001.96 1001.48 1000.96 1000.48 1000.04 999.60 999.12 998.52 997.96 997.48 997.08 996.84 996.72 996.60 996.60 996.56 996.52 996.48 996.36 996.24 996.08 995.96 995.80
1013.52 1013.40 1013.20 1013.04 1012.80 1012.60 1012.40 1012.20 1011.96 1011.76 1011.48 1011.20 1010.96 1010.72 1010.52 1010.32 1010.08 1009.84 1009.60 1009.40 1009.20 1008.92 1008.60 1008.32 1008.08 1007.84 1007.56 1007.32 1007.04 1006.80 1006.52 1006.28 1006.00 1005.76 1005.48 1005.20 1004.96 1004.72 1004.48 1004.20 1003.88 1003.64 1003.44 1003.16 1002.80 1002.40 1001.92 1001.48 1000.92 1000.48 1000.04 999.64 999.12 998.60 998.12 997.60 997.20 996.92 996.76 996.64 996.60 996.48 996.40 996.32 996.20 996.04 995.88 995.72 995.60
1013.36 1013.24 1013.04 1012.88 1012.64 1012.48 1012.24 1012.04 1011.76 1011.60 1011.36 1011.12 1010.88 1010.60 1010.40 1010.20 1009.92 1009.68 1009.48 1009.24 1009.04 1008.80 1008.52 1008.24 1007.92 1007.64 1007.40 1007.20 1006.92 1006.68 1006.40 1006.12 1005.84 1005.60 1005.36 1005.12 1004.84 1004.60 1004.32 1004.12 1003.88 1003.60 1003.36 1003.12 1002.80 1002.44 1002.00 1001.48 1000.96 1000.48 1000.08 999.68 999.20 998.68 998.24 997.76 997.36 997.08 996.92 996.72 996.60 996.44 996.28 996.08 995.92 995.76 995.64 995.52 995.48
1013.20 1013.04 1012.88 1012.68 1012.48 1012.32 1012.08 1011.88 1011.60 1011.40 1011.20 1011.00 1010.80 1010.52 1010.28 1010.04 1009.76 1009.52 1009.32 1009.12 1008.92 1008.72 1008.44 1008.08 1007.76 1007.48 1007.28 1007.04 1006.80 1006.52 1006.24 1005.96 1005.68 1005.48 1005.24 1005.00 1004.76 1004.48 1004.24 1004.04 1003.80 1003.52 1003.28 1003.04 1002.76 1002.48 1002.04 1001.56 1001.04 1000.56 1000.12 999.76 999.24 998.80 998.36 997.92 997.60 997.32 997.04 996.80 996.60 996.44 996.20 995.96 995.72 995.56 995.48 995.40 995.32
Wind_Speed
9 9 8 8 8 7 7 7 8 8 8 8 9 9 9 9 9 9 9 9 9 9 10 10 11 12 14 17 19 19 19 19 20 21 21 22 21 22 22 22 22 21 20 19 19 18 17 16 16 14 12 11 10 10 10 10 13 14 14 12 10 10 11 12 11 11 11 11 10
11 10 10 9 9 8 8 8 8 8 8 8 8 9 9 9 9 9 10 10 9 10 10 10 11 13 16 18 19 18 18 19 21 21 22 22 22 22 22 21 21 21 20 20 19 17 15 15 15 14 13 11 11 10 10 10 11 13 14 14 11 10 10 11 9 9 10 10 10
11 10 10 10 9 9 8 8 9 10 11 10 9 9 9 9 9 9 9 10 11 11 11 10 11 14 16 18 18 17 17 18 20 21 21 21 21 22 22 21 21 21 20 19 18 16 15 16 14 13 13 12 12 12 12 11 11 11 12 11 9 8 8 8 8 7 7 8 9
11 11 11 11 12 12 11 9 10 11 12 10 10 10 10 9 9 9 10 11 12 11 11 11 12 13 14 16 18 18 18 19 20 21 21 21 21 22 22 22 22 21 20 18 18 18 17 17 13 12 12 14 14 13 12 10 11 10 9 7 6 6 7 7 7 6 6 7 8
12 11 11 11 13 13 12 11 12 12 11 10 10 9 9 9 9 9 10 10 11 11 12 14 13 12 13 16 19 20 20 20 20 20 20 21 21 21 22 23 22 21 19 18 18 18 18 17 13 11 12 14 13 12 12 12 12 10 8 5 5 6 7 7 7 6 6 6 7
12 12 12 12 13 13 12 11 13 13 12 10 11 11 11 10 10 10 11 11 12 14 15 16 14 14 15 17 19 19 19 19 19 19 20 21 20 21 22 22 22 21 19 18 18 18 17 16 12 11 12 13 13 13 14 14 12 10 8 6 6 7 7 8 7 7 7 7 8
12 13 13 13 14 13 12 12 12 12 12 11 13 14 14 13 13 14 15 14 13 13 14 13 13 14 16 17 17 18 18 18 18 19 20 20 20 20 21 21 21 20 19 18 17 16 15 15 12 12 12 13 12 13 14 14 11 9 8 7 6 6 7 9 8 7 7 8 10
12 13 14 14 14 14 14 14 13 13 12 11 12 15 16 16 16 16 16 15 13 13 12 12 14 16 17 17 17 17 18 19 19 19 19 19 20 21 21 21 21 20 19 17 16 15 15 13 11 11 12 12 12 12 14 15 13 12 11 9 7 6 7 7 7 7 8 11 13
11 12 13 14 14 13 14 14 14 14 13 13 14 16 16 16 16 16 15 14 13 13 13 13 15 17 18 18 18 17 17 17 18 19 19 19 20 21 21 20 19 18 17 16 16 16 16 13 11 11 12 12 12 12 14 15 16 15 13 10 8 7 7 6 6 8 10 12 14
12 13 13 14 14 14 14 14 14 14 15 15 16 16 16 16 16 15 14 12 13 13 14 14 16 17 18 18 17 16 16 16 16 17 19 20 20 21 21 19 18 18 16 15 15 15 15 13 12 13 13 13 15 16 16 16 17 16 14 9 9 9 9 8 8 9 11 12 13
14 14 13 13 14 14 14 14 13 13 14 14 15 15 15 15 15 15 14 13 14 15 16 16 16 17 17 16 16 15 15 15 15 16 18 20 20 21 21 19 19 18 18 17 15 14 13 11 13 14 15 15 17 17 18 18 17 17 15 11 10 11 11 10 9 9 10 11 13
14 14 14 13 13 13 13 13 12 12 13 14 14 14 14 14 15 15 15 15 16 16 16 16 16 16 16 14 15 15 15 15 16 17 18 19 20 21 21 20 19 19 19 19 16 13 12 12 14 16 17 18 16 15 16 18 18 17 16 14 12 11 11 10 9 9 9 10 13
14 14 14 13 13 13 13 13 12 11 12 13 13 13 13 13 15 15 16 16 16 15 14 15 15 15 15 14 14 14 15 15 16 17 17 18 19 20 21 20 20 20 19 18 16 15 14 14 16 17 18 18 16 15 16 18 18 18 16 15 13 11 10 9 9 9 10 12 13
14 14 14 14 13 13 12 12 11 11 11 13 12 12 13 13 14 14 14 15 15 15 14 14 14 14 14 15 15 15 16 15 16 17 18 19 19 20 20 20 20 20 19 17 17 17 18 18 18 18 18 19 18 18 18 18 18 18 17 15 12 10 8 8 10 11 12 13 14
14 14 14 13 13 12 11 12 11 11 11 12 12 12 12 12 13 13 13 14 15 15 14 14 13 14 15 16 16 17 17 16 16 17 18 19 19 20 20 20 21 20 19 19 19 19 20 20 20 19 19 19 19 19 19 19 18 18 16 14 11 9 8 9 10 12 13 14 14
14 14 13 13 12 12 11 11 10 10 11 12 13 13 12 11 12 12 13 14 14 13 13 14 14 14 15 16 16 16 16 15 16 16 17 18 19 20 21 21 20 20 21 21 21 20 20 20 19 19 19 20 20 20 19 19 18 17 15 13 10 9 9 10 11 12 13 13 13
14 13 13 12 13 13 12 12 11 11 12 13 14 14 13 12 11 12 13 14 13 14 14 16 15 15 15 16 16 15 15 14 15 15 16 17 19 20 20 20 20 20 21 21 22 22 22 21 20 19 19 19 19 19 18 18 17 15 13 11 9 9 10 11 11 12 12 12 13
14 13 13 13 13 13 13 13 13 13 13 14 15 14 14 13 13 13 13 14 14 15 16 17 16 15 15 16 15 14 13 14 14 15 16 17 18 19 19 20 20 20 20 21 21 22 22 22 20 19 18 17 16 15 15 14 12 11 10 10 9 9 9 10 11 11 11 11 13
13 13 13 13 13 13 14 14 14 14 14 14 14 14 14 14 14 14 14 15 15 16 17 17 16 16 16 17 16 15 14 14 15 16 17 17 18 18 19 20 20 20 20 20 21 21 21 21 20 20 19 18 17 15 12 11 10 10 10 11 10 10 10 10 11 11 11 12 13
13 13 13 13 13 14 14 14 14 14 14 14 14 15 15 15 15 15 15 15 16 16 16 17 16 16 16 17 17 16 15 13 14 16 17 17 17 18 19 20 20 19 19 20 20 21 21 20 20 20 21 21 20 18 15 13 12 12 12 11 10 11 11 11 12 12 13 13 14
12 12 13 13 13 14 14 14 14 15 15 15 15 15 15 15 15 16 16 17 16 16 16 17 17 17 17 17 17 17 15 13 14 14 15 16 17 18 19 19 19 18 18 19 20 21 21 21 20 20 20 21 21 20 18 15 14 14 13 11 10 11 12 12 13 14 14 14 14
12 12 13 13 13 14 14 14 14 15 15 15 15 15 15 15 16 16 17 17 17 17 17 17 17 17 17 17 17 16 15 14 13 13 14 15 16 17 18 17 18 18 18 19 19 20 21 20 20 20 20 20 20 19 18 16 15 14 14 13 12 12 12 13 14 14 14 14 13
12 12 12 13 13 14 15 15 15 15 15 15 15 15 15 15 16 16 17 17 16 16 17 16 16 16 17 16 16 16 16 15 14 13 13 14 15 16 17 17 17 17 17 17 18 19 19 19 19 19 19 18 19 19 18 16 15 14 14 13 13 12 13 13 14 14 13 12 12
13 13 12 11 13 14 14 14 15 15 15 15 15 15 15 15 15 16 16 17 16 16 16 15 15 15 16 16 16 16 16 15 15 14 14 14 14 15 16 16 15 15 15 14 18 21 22 19 18 17 18 18 18 17 16 15 13 13 13 13 12 12 12 12 12 12 12 12 12
13 13 13 13 14 14 14 14 15 15 15 15 15 15 15 15 15 15 15 16 16 16 17 16 16 15 15 14 15 15 15 15 14 14 14 14 14 14 14 14 13 13 12 14 22 29 31 28 23 19 17 16 17 17 16 15 13 12 12 11 11 11 11 11 10 10 10 11 12
13 14 14 14 14 14 15 15 15 15 15 15 15 15 15 15 15 15 16 16 16 16 16 16 15 14 14 13 14 14 14 13 13 13 13 13 14 14 14 13 12 11 12 16 25 31 34 34 31 27 22 17 17 16 16 14 12 12 11 10 10 10 10 10 9 10 10 10 12
13 14 14 14 14 15 15 15 15 15 15 15 15 15 15 15 14 15 16 16 16 16 16 14 13 13 13 12 13 14 14 13 13 13 13 13 14 14 14 13 12 11 13 20 28 32 33 34 34 32 28 22 19 17 15 13 12 11 11 10 10 10 10 10 10 9 10 10 13
14 14 14 14 15 15 15 15 15 15 15 15 15 15 15 15 15 16 16 16 16 16 15 13 12 11 10 10 12 14 15 15 14 13 12 12 14 14 14 13 12 14 17 24 30 32 33 34 34 34 33 29 21 17 15 13 11 10 10 9 9 10 10 9 8 8 8 10 13
14 14 14 14 15 15 15 15 15 15 15 15 15 15 16 15 15 16 16 16 16 16 14 13 12 11 11 12 13 14 15 15 14 13 12 13 13 14 14 14 14 16 20 27 30 32 33 34 35 35 35 34 24 16 12 10 10 9 9 8 8 8 8 7 6 6 7 9 12
14 14 14 14 15 15 15 15 15 15 15 14 15 15 16 16 16 16 16 16 16 15 14 13 13 13 14 15 14 14 14 14 13 13 13 13 14 15 15 16 15 16 20 26 30 32 33 34 35 35 36 36 28 19 12 9 10 10 10 8 7 7 8 7 6 6 6 7 11
14 14 14 15 15 15 15 15 16 15 15 14 15 16 16 16 16 15 15 15 15 15 15 15 16 16 17 16 15 15 15 15 15 14 13 13 14 15 16 16 17 17 20 26 29 32 33 34 34 35 35 36 29 20 12 9 9 9 10 9 8 7 7 6 5 5 6 8 10
14 14 14 15 15 15 16 16 16 16 16 16 16 16 16 16 16 15 15 15 15 15 16 16 17 17 17 17 16 17 17 16 15 14 13 13 14 14 15 16 16 17 21 27 30 32 33 34 34 35 35 36 29 21 14 9 8 8 9 11 11 9 6 4 4 5 6 8 9
14 14 14 15 15 15 16 16 16 16 16 16 16 16 16 16 15 15 15 14 14 15 16 16 17 17 17 17 17 17 17 17 16 15 15 14 14 14 15 15 14 17 22 28 31 32 33 34 34 35 35 36 28 20 14 10 7 6 7 9 11 11 9 7 6 6 7 8 9
14 14 14 15 15 15 16 16 16 16 16 16 16 16 16 16 16 15 15 14 14 14 14 15 15 16 16 16 16 17 17 17 16 15 15 14 14 14 15 14 12 16 23 29 31 32 33 34 35 35 35 34 25 18 14 11 7 6 6 8 10 10 10 9 7 7 8 9 9
14 14 14 15 15 15 15 16 16 16 16 16 16 16 16 16 15 15 15 15 15 14 14 15 15 15 15 15 16 17 18 18 18 17 16 14 14 14 15 15 14 19 25 30 31 32 33 34 35 35 34 30 21 16 14 11 8 7 7 8 9 10 10 10 8 7 8 8 9
14 14 14 15 15 15 15 16 16 16 16 16 16 16 16 16 15 15 15 15 15 15 15 15 15 15 16 16 16 16 17 18 18 18 17 15 14 14 15 15 16 20 25 29 31 32 33 34 35 35 32 25 18 15 13 11 8 7 7 7 8 9 10 10 9 8 8 8 8
14 14 14 15 15 15 15 15 16 16 16 16 16 16 16 16 15 15 14 14 14 15 15 15 15 15 16 16 16 16 17 17 18 18 17 16 14 14 14 15 16 19 23 27 30 31 32 34 35 34 30 22 17 15 13 10 7 6 6 7 7 8 9 9 9 9 8 8 8
14 14 14 15 15 15 15 15 15 16 16 16 16 16 15 15 14 14 14 13 14 14 15 15 15 16 16 16 16 17 17 18 18 18 17 16 14 14 14 15 16 17 20 25 29 31 32 33 34 34 30 22 18 15 13 10 8 6 6 6 6 7 8 7 7 8 8 8 9
14 14 14 14 15 15 15 15 16 16 16 16 16 16 15 15 14 13 13 13 13 14 15 15 16 16 16 17 16 16 17 18 18 17 17 16 15 15 15 15 15 16 19 24 27 30 31 33 34 34 31 24 18 14 12 10 9 7 6 5 5 6 7 7 7 7 7 8 10
14 14 14 14 14 15 15 15 16 15 15 15 16 16 15 15 14 14 13 13 13 14 14 15 16 16 16 16 16 16 17 17 17 17 16 16 16 16 16 14 14 15 18 21 25 28 30 32 33 34 31 23 17 13 11 10 9 8 7 6 6 6 7 7 7 6 6 7 8
14 14 14 14 14 14 15 15 15 15 15 15 15 15 14 14 14 14 13 12 13 13 13 13 15 16 17 16 15 15 16 17 17 16 16 17 16 16 15 13 14 15 16 18 22 25 28 31 32 33 31 24 17 13 10 9 9 10 10 9 8 7 7 8 7 6 5 5 5
Wind_Direction
299 299 298 298 297 296 296 295 294 293 293 293 294 295 294 292 291 292 292 292 292 293 295 297 297 298 299 300 301 302 303 304 305 306 306 306 305 303 302 301 299 297 295 294 297 299 301 303 304 301 296 288 280 275 273 274 272 269 266 263 259 255 252 250 246 244 245 249 254
299 299 297 297 296 295 295 294 293 293 293 294 294 294 293 291 291 292 292 292 292 294 295 296 295 296 298 300 302 302 303 303 305 306 307 307 306 304 302 299 298 296 295 295 298 299 301 304 304 302 297 290 280 273 267 265 267 268 267 266 263 262 262 259 253 250 251 252 252
299 299 298 297 296 296 295 295 294 294 294 293 293 293 292 291 290 291 291 293 294 295 295 296 295 296 298 300 302 302 303 303 305 306 307 308 306 304 302 299 297 295 295 295 297 298 300 302 302 299 294 288 280 275 270 264 263 266 269 270 268 268 268 265 259 253 250 250 248
298 299 299 298 297 296 295 295 294 295 294 294 293 292 290 289 289 289 291 294 295 296 296 297 297 297 298 299 301 302 302 303 305 307 308 308 306 303 301 298 297 296 296 296 296 297 298 300 299 296 291 285 278 273 269 267 266 267 268 268 265 263 262 259 253 249 247 249 247
299 299 299 299 298 297 295 293 294 295 295 294 294 293 291 289 289 289 291 294 296 297 299 300 298 298 298 299 301 302 303 304 306 307 308 308 305 303 300 298 297 296 296 296 296 297 298 300 297 292 287 283 277 271 265 264 265 264 263 256 253 253 254 253 250 247 246 249 249
299 299 298 297 296 295 294 293 294 294 295 294 293 292 292 291 292 294 295 296 296 298 300 301 298 298 300 303 304 304 304 305 306 307 308 307 305 302 299 297 295 294 294 295 296 297 298 300 296 290 286 282 278 273 269 265 263 259 255 250 245 244 245 246 247 246 245 246 251
297 297 297 296 295 294 293 294 294 294 294 292 291 291 292 293 294 295 295 296 296 298 300 301 301 301 303 305 305 304 304 305 305 306 307 307 304 301 298 296 293 292 292 294 296 297 298 299 294 290 286 284 280 275 270 265 261 256 251 246 243 246 253 261 266 267 266 264 264
295 295 294 294 294 293 292 293 294 295 294 292 291 292 292 293 293 294 295 296 297 298 300 301 301 302 303 304 303 302 302 303 304 306 307 306 303 300 298 295 293 291 291 293 295 296 296 295 290 286 284 282 279 276 272 267 262 256 250 245 246 256 269 279 286 291 292 288 282
295 294 293 293 292 292 292 293 293 294 293 292 291 291 292 294 294 296 297 297 298 300 300 300 301 302 303 303 301 300 299 301 302 304 306 306 303 301 298 295 293 292 291 292 293 293 293 290 286 283 282 280 278 275 271 267 262 258 254 249 249 254 262 271 279 284 286 285 283
295 294 294 293 292 292 293 294 293 293 292 291 291 292 293 296 297 298 298 298 299 299 300 300 302 302 303 303 301 299 298 298 301 303 304 305 303 301 298 295 294 293 294 294 293 292 290 285 283 283 283 283 283 280 276 269 264 260 257 253 252 252 253 254 259 265 269 273 275
294 293 293 291 292 292 293 294 294 293 292 292 293 295 297 298 299 299 299 299 299 299 300 301 302 303 302 301 300 298 297 297 299 301 303 304 303 301 299 296 295 296 297 298 296 292 287 283 283 284 286 286 288 286 283 278 271 265 260 253 247 244 243 243 247 255 263 269 273
293 292 291 290 291 292 293 293 293 293 294 294 296 298 299 299 300 300 300 300 300 300 301 302 302 302 302 300 299 298 296 296 298 300 302 303 302 301 300 298 298 300 301 302 299 294 288 285 285 286 286 286 286 286 286 284 280 274 267 258 247 240 237 240 246 253 261 268 271
293 292 291 290 291 292 293 293 293 294 295 297 298 299 300 300 301 301 301 301 302 302 302 303 302 302 301 299 298 297 296 295 297 299 301 302 303 303 302 302 303 304 305 304 302 298 295 291 289 288 286 284 282 281 282 283 282 279 273 265 253 245 240 243 250 256 261 265 268
291 291 290 291 292 293 294 296 296 297 298 299 299 300 301 300 301 301 301 301 302 302 302 302 302 302 301 301 299 297 296 294 295 298 300 302 303 305 305 305 307 307 308 307 305 303 300 297 294 291 287 284 282 279 278 277 277 277 274 267 256 246 239 244 251 256 260 262 265
290 290 290 292 293 294 296 298 299 300 301 302 302 301 301 301 300 301 301 301 301 301 302 302 302 302 302 301 299 298 296 294 295 297 300 302 305 307 308 308 309 309 309 310 308 305 302 299 297 294 290 286 282 279 276 273 272 271 269 263 251 239 233 240 248 253 257 260 263
290 291 292 293 295 297 298 301 301 303 303 303 304 303 302 300 300 300 301 301 301 301 301 301 301 302 303 302 301 299 297 295 295 298 300 303 307 309 309 309 309 310 310 311 310 307 304 302 299 295 291 286 282 278 274 271 268 264 260 254 243 235 232 238 245 250 255 259 263
291 292 294 296 298 299 301 303 303 304 304 303 304 303 302 300 300 301 301 301 300 300 300 300 301 302 303 303 302 301 299 296 296 298 301 304 307 308 308 309 309 309 310 311 310 308 306 305 302 298 292 287 282 277 273 268 263 258 252 246 241 238 237 240 245 251 258 266 270
291 294 296 299 301 302 303 304 304 303 303 303 303 302 302 301 300 300 300 299 299 299 299 300 301 302 302 303 302 301 299 298 297 299 302 305 306 307 307 308 309 309 310 310 309 308 307 307 305 303 299 295 290 284 278 270 264 258 254 251 249 247 246 247 251 257 265 271 275
293 296 299 301 303 304 305 305 304 303 302 302 302 301 301 300 300 299 299 299 298 298 299 300 301 302 302 302 302 301 300 298 297 299 303 306 307 307 307 308 309 309 310 311 310 309 309 309 309 310 310 310 306 301 292 281 272 266 263 260 258 255 253 253 255 258 261 266 272
294 297 300 302 304 304 304 303 302 302 301 301 300 300 300 300 300 299 299 299 299 299 299 300 301 302 302 302 302 301 300 298 297 299 303 307 309 309 308 308 308 309 310 312 311 311 311 312 314 315 316 314 309 303 294 284 277 271 267 262 257 253 250 249 251 253 255 259 267
296 299 302 303 304 303 302 301 301 300 300 300 300 299 299 300 300 300 300 300 301 300 300 301 301 302 302 303 303 302 300 298 296 298 302 307 309 309 308 308 308 310 312 314 313 313 313 315 315 315 312 308 302 296 291 284 278 273 268 260 252 247 246 246 247 249 252 257 264
299 301 303 303 302 301 300 300 300 300 300 299 300 300 300 301 301 302 302 302 302 302 301 302 302 303 303 303 303 302 300 298 296 296 299 305 308 309 309 308 310 312 314 315 314 313 313 313 312 309 305 300 296 293 290 284 279 275 269 260 251 245 243 243 245 247 250 256 264
301 302 302 301 300 300 299 299 299 299 299 299 300 301 301 302 302 302 303 303 302 302 302 302 302 303 303 302 302 301 300 299 296 296 298 302 305 308 310 310 311 313 315 315 313 312 311 310 308 307 304 301 299 297 293 287 283 278 272 263 253 245 241 241 242 244 249 256 266
302 302 301 300 299 299 299 299 299 299 299 300 301 302 303 303 303 303 303 303 302 302 301 301 301 302 302 302 302 301 301 300 298 298 299 301 304 307 310 311 311 312 314 314 314 314 314 312 310 309 308 306 303 299 294 287 284 282 279 273 262 251 244 243 245 247 252 261 270
301 301 300 298 298 298 298 298 299 299 299 300 302 303 304 304 304 304 303 303 302 301 301 300 300 301 302 302 302 302 302 301 299 300 301 303 305 307 309 311 311 311 313 313 314 315 315 315 315 313 311 308 304 299 293 283 278 277 278 279 274 266 260 257 258 259 262 268 273
301 300 299 298 298 298 298 298 298 299 300 301 303 304 305 305 305 305 304 304 302 302 302 301 300 301 302 302 303 304 304 303 300 300 301 304 306 308 309 310 310 310 311 313 315 315 316 316 316 316 314 311 308 304 298 287 276 271 270 272 274 275 275 275 275 274 275 275 278
299 299 298 298 298 298 298 298 299 300 300 302 303 304 304 305 305 305 305 304 303 303 303 302 301 301 302 302 303 304 305 304 302 301 301 302 306 308 309 309 309 309 311 314 315 316 316 318 319 320 320 317 314 310 304 295 284 276 270 267 267 268 270 273 276 280 284 287 287
298 298 298 299 298 298 298 299 299 300 301 302 303 304 304 305 305 305 305 305 305 306 306 305 305 305 304 304 305 305 305 305 303 302 301 302 304 307 309 309 309 310 313 316 317 318 319 321 322 323 323 323 318 311 304 298 291 284 276 268 263 260 260 262 268 276 286 293 293
297 298 298 299 298 298 298 299 299 300 300 301 303 304 304 305 305 305 305 305 306 307 308 308 309 308 307 306 306 305 305 305 304 302 301 302 305 307 309 310 310 311 314 318 319 321 322 323 324 324 324 325 322 316 308 303 300 295 286 274 262 255 252 251 256 266 280 290 293
297 298 298 298 298 298 299 299 299 300 301 302 303 304 305 305 305 305 306 306 307 307 307 307 308 307 307 306 306 307 307 307 305 302 301 301 305 308 311 312 313 314 316 320 321 322 323 325 325 325 325 325 323 318 310 309 309 307 302 291 270 252 243 240 245 257 272 283 291
297 297 297 298 298 298 299 299 300 301 302 303 304 304 305 305 305 306 306 307 306 306 306 306 306 305 306 306 307 308 308 308 306 303 301 301 305 309 311 312 314 315 317 321 323 324 325 326 326 325 325 325 324 321 315 311 312 313 312 307 292 271 251 238 243 255 268 278 288
296 297 297 298 298 298 299 300 302 303 303 304 304 304 304 304 304 305 306 306 305 306 306 306 307 307 308 309 309 309 309 309 307 304 303 303 306 308 311 313 315 317 320 324 325 326 326 326 325 325 325 326 324 320 314 310 311 313 316 318 316 309 296 275 267 267 271 276 285
296 297 297 298 298 299 300 301 302 303 304 304 303 303 303 304 305 306 307 307 306 306 307 307 308 309 309 310 310 310 309 309 307 306 304 303 305 307 311 314 315 318 322 326 327 327 326 326 325 325 325 327 325 319 312 306 306 311 318 322 325 324 320 308 293 282 280 282 287
297 298 298 298 299 300 301 302 303 304 304 303 303 303 303 304 305 307 308 308 307 306 306 307 308 309 309 309 309 309 309 310 310 309 306 304 304 307 311 315 314 320 325 327 328 328 327 326 325 326 326 328 324 317 308 303 302 306 313 318 323 325 324 319 306 295 289 289 291
298 298 298 298 299 300 301 302 303 303 303 302 302 302 303 304 305 306 307 307 306 306 306 307 308 309 309 309 308 308 309 310 311 310 308 305 305 307 310 314 315 322 327 329 329 328 327 326 325 326 327 327 322 314 306 300 298 300 306 312 319 323 325 323 316 305 295 290 292
298 298 298 299 299 300 300 301 302 302 302 301 302 302 303 304 305 305 306 306 306 306 306 308 309 310 310 310 309 309 309 310 311 311 310 307 306 307 310 313 317 324 328 330 329 328 327 326 325 326 327 326 320 313 307 300 295 295 300 307 313 318 321 321 316 307 297 289 290
298 298 298 298 299 299 300 300 301 301 301 301 301 302 303 304 304 305 305 306 306 307 308 309 310 310 311 310 309 309 309 310 311 311 310 309 307 307 309 313 319 325 328 329 329 328 327 326 326 327 328 325 320 316 312 306 299 295 297 303 307 312 314 314 311 304 296 289 289
298 298 298 298 298 298 299 299 300 300 300 300 300 301 302 303 304 304 305 306 307 307 308 310 310 310 310 310 310 310 310 310 310 310 310 310 307 307 309 314 319 324 327 329 328 328 327 326 326 328 329 326 322 319 318 318 312 304 298 300 302 305 306 304 302 298 294 288 288
297 297 297 296 297 297 297 298 298 298 298 299 300 301 302 303 302 303 304 305 305 307 308 308 309 309 309 311 310 310 310 309 309 309 310 311 308 308 310 313 317 321 324 327 328 327 327 327 327 329 330 327 322 321 323 328 324 319 311 305 302 300 300 296 294 292 290 287 289
297 296 296 295 295 295 296 296 296 297 297 298 299 300 301 301 301 301 302 303 305 305 306 306 308 309 310 311 311 310 309 309 308 309 310 311 309 309 310 310 313 317 321 324 326 326 327 327 328 329 329 326 323 322 324 331 332 333 331 323 313 305 299 295 291 288 285 285 289
296 296 296 295 294 295 295 295 295 296 296 297 298 298 299 299 299 301 302 303 304 305 305 305 307 309 310 311 310 310 309 308 308 309 310 311 310 309 308 306 309 312 316 319 323 325 326 327 327 327 328 326 326 325 326 331 336 341 341 336 326 315 305 298 292 287 283 284 289